KB6CYS Weather Reports


Display with metric or nautical units.
time (UTC)temp
F
wind
direction
speed
MPH
gust
MPH
rain 1hr
in
rain 24hr
in
rain mn
in
humidity
%
barometer
mb
20260831025502 75 268 6.0 9.0 0.00 0.00 0.00 1009.9
20260831025004 75 282 3.0 7.0 0.00 0.00 0.00 1009.5
20260831024525 76 283 4.0 9.0 0.00 0.00 0.00 1009.9
20260831024002 76 277 4.0 9.0 0.00 0.00 0.00 1009.9
20260831023501 76 289 5.0 10.0 0.00 0.00 0.00 1009.5
20260831023002 76 272 6.0 10.0 0.00 0.00 0.00 1009.5
20260831022502 77 279 6.0 10.0 0.00 0.00 0.00 1009.2
20260831022002 77 275 5.0 10.0 0.00 0.00 0.00 1009.5
20260831021501 77 287 4.0 9.0 0.00 0.00 0.00 1009.5
20260831021002 78 281 4.0 10.0 0.00 0.00 0.00 1009.9
20260831020502 79 281 5.0 10.0 0.00 0.00 0.00 1009.9
20260831020002 80 280 5.0 10.0 0.00 0.00 0.00 1009.5
20260831015503 81 244 5.0 8.0 0.00 0.00 0.00 1009.9
20260831015023 81 208 4.0 6.0 0.00 0.00 0.00 1009.9
20260831014502 81 181 4.0 9.0 0.00 0.00 0.00 1009.9
20260831014003 81 189 4.0 9.0 0.00 0.00 0.00 1010.2
20260831013503 81 216 4.0 11.0 0.00 0.00 0.00 1009.9
20260831013002 81 180 6.0 11.0 0.00 0.00 0.00 1009.9
20260831012501 81 182 5.0 11.0 0.00 0.00 0.00 1009.9
20260831012023 81 209 6.0 11.0 0.00 0.00 0.00 1010.5
20260831011524 81 185 6.0 12.0 0.00 0.00 0.00 1010.2
20260831011002 81 190 6.0 12.0 0.00 0.00 0.00 1009.5
20260831010503 82 212 5.0 13.0 0.00 0.00 0.00 1009.5
20260831010002 82 215 7.0 13.0 0.00 0.00 0.00 1009.2
20260831005503 82 186 7.0 12.0 0.00 0.00 0.00 1009.9
20260831005002 82 192 5.0 12.0 0.00 0.00 0.00 1009.9
20260831004502 82 218 7.0 12.0 0.00 0.00 0.00 1009.9
20260831004003 83 203 6.0 13.0 0.00 0.00 0.00 1009.9
20260831003502 83 180 8.0 13.0 0.00 0.00 0.00 1010.2
20260831003002 84 195 6.0 11.0 0.00 0.00 0.00 1010.2
20260831002502 84 198 4.0 13.0 0.00 0.00 0.00 1009.9
20260831002002 84 216 8.0 13.0 0.00 0.00 0.00 1009.5
20260831001502 84 187 6.0 13.0 0.00 0.00 0.00 1010.2
20260831001003 84 222 8.0 13.0 0.00 0.00 0.00 1010.2
20260831000502 85 207 7.0 13.0 0.00 0.00 0.00 1010.2
20260831000002 86 177 8.0 11.0 0.00 0.00 0.00 1009.9
20260830235525 86 200 5.0 10.0 0.00 0.00 0.00 1010.2
20260830235002 87 213 6.0 10.0 0.00 0.00 0.00 1010.2
20260830234503 87 165 6.0 10.0 0.00 0.00 0.00 1009.5
20260830234003 87 181 6.0 10.0 0.00 0.00 0.00 1009.9
20260830233504 86 184 5.0 10.0 0.00 0.00 0.00 1010.2
20260830233003 86 213 6.0 11.0 0.00 0.00 0.00 1010.2
20260830232503 86 215 5.0 12.0 0.00 0.00 0.00 1009.9
20260830232004 86 215 7.0 12.0 0.00 0.00 0.00 1009.2
20260830231501 86 214 6.0 14.0 0.00 0.00 0.00 1009.9
20260830231002 87 229 7.0 14.0 0.00 0.00 0.00 1009.9
20260830230502 86 183 7.0 11.0 0.00 0.00 0.00 1009.2
20260830230003 86 217 6.0 11.0 0.00 0.00 0.00 1009.5
20260830225524 87 210 6.0 11.0 0.00 0.00 0.00 1009.5
20260830225002 87 196 5.0 10.0 0.00 0.00 0.00 1009.9
20260830224502 87 169 6.0 10.0 0.00 0.00 0.00 1010.2
20260830224003 87 207 5.0 12.0 0.00 0.00 0.00 1010.5
20260830223502 86 175 6.0 12.0 0.00 0.00 0.00 1010.5
20260830223002 86 203 5.0 11.0 0.00 0.00 0.00 1010.9
20260830222523 87 215 4.0 11.0 0.00 0.00 0.00 1011.2
20260830222002 86 218 6.0 12.0 0.00 0.00 0.00 1010.9
20260830221502 86 228 7.0 12.0 0.00 0.00 0.00 1010.5
20260830221002 86 187 6.0 12.0 0.00 0.00 0.00 1010.5
20260830220502 86 225 7.0 12.0 0.00 0.00 0.00 1010.5
20260830220003 87 199 6.0 12.0 0.00 0.00 0.00 1011.2
20260830215503 86 178 6.0 11.0 0.00 0.00 0.00 1010.5
20260830215002 86 197 7.0 14.0 0.00 0.00 0.00 1010.9
20260830214502 86 208 7.0 14.0 0.00 0.00 0.00 1011.2
20260830214003 86 206 7.0 12.0 0.00 0.00 0.00 1011.5
20260830213503 86 206 6.0 12.0 0.00 0.00 0.00 1011.2
20260830213002 85 218 5.0 14.0 0.00 0.00 0.00 1011.2
20260830212502 84 234 8.0 15.0 0.00 0.00 0.00 1011.2
20260830212002 85 223 7.0 15.0 0.00 0.00 0.00 1011.5
20260830211503 84 226 9.0 12.0 0.00 0.00 0.00 1011.9
20260830211002 85 230 7.0 13.0 0.00 0.00 0.00 1011.2
20260830210501 84 239 7.0 13.0 0.00 0.00 0.00 1011.5
20260830210003 85 238 8.0 14.0 0.00 0.00 0.00 1011.5
20260830205503 85 226 8.0 14.0 0.00 0.00 0.00 1011.5
20260830205002 86 211 7.0 13.0 0.00 0.00 0.00 1011.5
20260830204523 85 223 6.0 14.0 0.00 0.00 0.00 1011.2
20260830204002 85 202 6.0 14.0 0.00 0.00 0.00 1011.5
20260830203502 85 205 7.0 14.0 0.00 0.00 0.00 1011.2
20260830203002 85 208 5.0 13.0 0.00 0.00 0.00 1011.9
20260830202502 86 207 7.0 13.0 0.00 0.00 0.00 1011.5
20260830202002 85 193 5.0 12.0 0.00 0.00 0.00 1011.5
20260830201501 85 189 4.0 12.0 0.00 0.00 0.00 1011.2
20260830201023 85 182 7.0 12.0 0.00 0.00 0.00 1011.2
20260830200502 85 212 6.0 12.0 0.00 0.00 0.00 1011.5
20260830200002 84 208 5.0 12.0 0.00 0.00 0.00 1011.9
20260830195502 84 236 7.0 12.0 0.00 0.00 0.00 1011.2
20260830195002 84 211 6.0 11.0 0.00 0.00 0.00 1011.5
20260830194503 84 213 7.0 11.0 0.00 0.00 0.00 1011.9
20260830194002 84 203 8.0 13.0 0.00 0.00 0.00 1011.9
20260830193502 84 226 7.0 13.0 0.00 0.00 0.00 1011.5
20260830193002 84 197 6.0 12.0 0.00 0.00 0.00 1011.2
20260830192503 84 223 5.0 10.0 0.00 0.00 0.00 1011.5
20260830192003 85 182 5.0 11.0 0.00 0.00 0.00 1011.9
20260830191503 84 210 6.0 12.0 0.00 0.00 0.00 1011.5
20260830191002 84 187 6.0 13.0 0.00 0.00 0.00 1011.9
20260830190524 84 186 5.0 13.0 0.00 0.00 0.00 1011.2
20260830190024 84 220 5.0 11.0 0.00 0.00 0.00 1011.5
20260830185502 84 212 6.0 11.0 0.00 0.00 0.00 1010.9
20260830185023 84 175 6.0 12.0 0.00 0.00 0.00 1011.9
20260830184503 84 181 6.0 12.0 0.00 0.00 0.00 1011.2
20260830184002 84 225 6.0 9.0 0.00 0.00 0.00 1011.5
20260830183502 84 204 4.0 10.0 0.00 0.00 0.00 1011.5
20260830183002 84 174 6.0 10.0 0.00 0.00 0.00 1011.2
20260830182502 84 178 5.0 12.0 0.00 0.00 0.00 1011.5
20260830182002 84 191 4.0 12.0 0.00 0.00 0.00 1011.9
20260830181502 84 162 4.0 10.0 0.00 0.00 0.00 1011.9
20260830181023 84 174 5.0 10.0 0.00 0.00 0.00 1011.9
20260830180502 84 182 4.0 10.0 0.00 0.00 0.00 1011.9
20260830180002 83 163 5.0 10.0 0.00 0.00 0.00 1011.5
20260830175501 82 177 5.0 9.0 0.00 0.00 0.00 1011.9
20260830175023 82 219 3.0 6.0 0.00 0.00 0.00 1011.9
20260830174524 82 89 2.0 7.0 0.00 0.00 0.00 1011.9
20260830174024 81 198 4.0 9.0 0.00 0.00 0.00 1011.5
20260830173503 81 201 4.0 10.0 0.00 0.00 0.00 1011.5
20260830173002 80 235 2.0 10.0 0.00 0.00 0.00 1011.5
20260830172502 80 71 2.0 7.0 0.00 0.00 0.00 1011.9
20260830172023 80 222 4.0 7.0 0.00 0.00 0.00 1012.2
20260830171502 80 214 3.0 6.0 0.00 0.00 0.00 1011.9
20260830171002 80 104 3.0 5.0 0.00 0.00 0.00 1011.5
20260830170524 80 98 3.0 7.0 0.00 0.00 0.00 1011.9
20260830170002 79 188 3.0 7.0 0.00 0.00 0.00 1011.5
20260830165502 78 155 1.0 5.0 0.00 0.00 0.00 1011.2
20260830165002 78 241 2.0 6.0 0.00 0.00 0.00 1010.9
20260830164502 78 233 3.0 6.0 0.00 0.00 0.00 1011.2
20260830164023 78 220 2.0 6.0 0.00 0.00 0.00 1011.9
20260830163502 77 79 2.0 5.0 0.00 0.00 0.00 1011.5
20260830163002 77 195 3.0 5.0 0.00 0.00 0.00 1011.2
20260830162503 77 201 2.0 5.0 0.00 0.00 0.00 1010.9
20260830162002 77 182 2.0 5.0 0.00 0.00 0.00 1010.9
20260830161502 76 206 2.0 6.0 0.00 0.00 0.00 1010.9
20260830161001 77 202 2.0 6.0 0.00 0.00 0.00 1011.9
20260830160523 76 235 2.0 4.0 0.00 0.00 0.00 1011.9
20260830160002 75 249 1.0 5.0 0.00 0.00 0.00 1011.2
20260830155503 75 184 3.0 6.0 0.00 0.00 0.00 1010.9
20260830155002 75 119 3.0 6.0 0.00 0.00 0.00 1011.9
20260830154523 75 220 3.0 5.0 0.00 0.00 0.00 1011.5
20260830154024 75 147 2.0 3.0 0.00 0.00 0.00 1011.9
20260830153502 74 154 1.0 5.0 0.00 0.00 0.00 1011.9
20260830153002 74 107 2.0 5.0 0.00 0.00 0.00 1010.9
20260830152502 74 210 2.0 3.0 0.00 0.00 0.00 1010.9
20260830152002 74 155 1.0 3.0 0.00 0.00 0.00 1011.5
20260830151502 73 86 1.0 4.0 0.00 0.00 0.00 1011.2
20260830151002 73 108 1.0 5.0 0.00 0.00 0.00 1011.2
20260830150503 73 86 2.0 5.0 0.00 0.00 0.00 1011.9
20260830150002 72 85 2.0 5.0 0.00 0.00 0.00 1011.5
20260830145502 72 81 2.0 4.0 0.00 0.00 0.00 1011.2
20260830145023 72 97 1.0 4.0 0.00 0.00 0.00 1011.2
20260830144502 71 119 2.0 3.0 0.00 0.00 0.00 1011.2
20260830144002 71 105 1.0 3.0 0.00 0.00 0.00 1011.2
20260830143524 71 105 1.0 3.0 0.00 0.00 0.00 1011.2
20260830143002 71 85 1.0 2.0 0.00 0.00 0.00 1011.2
20260830142502 71 112 1.0 2.0 0.00 0.00 0.00 1011.5
20260830142024 70 81 1.0 3.0 0.00 0.00 0.00 1011.5
20260830141523 70 100 2.0 3.0 0.00 0.00 0.00 1011.9
20260830141002 70 102 1.0 2.0 0.00 0.00 0.00 1011.9
20260830140502 70 101 1.0 2.0 0.00 0.00 0.00 1011.5
20260830140002 70 109 1.0 2.0 0.00 0.00 0.00 1011.5
20260830135502 70 92 1.0 2.0 0.00 0.00 0.00 1011.5
20260830135003 70 106 1.0 2.0 0.00 0.00 0.00 1011.2
20260830134503 70 81 1.0 3.0 0.00 0.00 0.00 1011.2
20260830134002 70 88 2.0 3.0 0.00 0.00 0.00 1011.2
20260830133524 70 88 2.0 3.0 0.00 0.00 0.00 1011.2
20260830133002 70 98 1.0 2.0 0.00 0.00 0.00 1011.2
20260830132503 70 98 1.0 2.0 0.00 0.00 0.00 1011.2
20260830132025 70 98 1.0 2.0 0.00 0.00 0.00 1010.9
20260830131502 70 106 1.0 2.0 0.00 0.00 0.00 1011.2
20260830131003 70 104 1.0 2.0 0.00 0.00 0.00 1011.2
20260830130503 70 93 1.0 2.0 0.00 0.00 0.00 1010.9
20260830130023 70 99 1.0 2.0 0.00 0.00 0.00 1011.2
20260830125502 70 96 1.0 2.0 0.00 0.00 0.00 1010.5
20260830125002 70 91 1.0 2.0 0.00 0.00 0.00 1010.5
20260830124523 70 92 0.0 1.0 0.00 0.00 0.00 1010.5
20260830124002 70 90 1.0 1.0 0.00 0.00 0.00 1010.2
20260830123502 70 92 1.0 1.0 0.00 0.00 0.00 1010.5
20260830123023 70 90 0.0 2.0 0.00 0.00 0.00 1010.5
20260830122502 70 83 1.0 2.0 0.00 0.00 0.00 1010.2
20260830122003 71 94 1.0 3.0 0.00 0.00 0.00 1010.5
20260830121524 71 98 1.0 3.0 0.00 0.00 0.00 1010.5
20260830121003 71 86 1.0 2.0 0.00 0.00 0.00 1010.2
20260830120523 71 88 1.0 2.0 0.00 0.00 0.00 1010.5
20260830120002 71 90 1.0 2.0 0.00 0.00 0.00 1010.5
20260830115503 71 90 1.0 2.0 0.00 0.00 0.00 1010.2
20260830115002 71 101 1.0 2.0 0.00 0.00 0.00 1009.9
20260830114502 71 86 1.0 2.0 0.00 0.00 0.00 1009.9
20260830114002 71 75 2.0 3.0 0.00 0.00 0.00 1010.2
20260830113502 71 81 2.0 3.0 0.00 0.00 0.00 1010.2
20260830113003 71 87 1.0 2.0 0.00 0.00 0.00 1010.5
20260830112503 71 90 1.0 2.0 0.00 0.00 0.00 1010.2
20260830112002 71 90 1.0 2.0 0.00 0.00 0.00 1010.9
20260830111503 71 119 1.0 2.0 0.00 0.00 0.00 1010.5
20260830111003 71 183 1.0 3.0 0.00 0.00 0.00 1010.9
20260830110502 71 178 2.0 4.0 0.00 0.00 0.00 1010.5
20260830110023 71 179 2.0 4.0 0.00 0.00 0.00 1010.5
20260830105524 71 175 2.0 3.0 0.00 0.00 0.00 1010.2
20260830105003 71 155 1.0 3.0 0.00 0.00 0.00 1010.5
20260830104524 71 175 1.0 3.0 0.00 0.00 0.00 1010.9
20260830104002 71 189 1.0 3.0 0.00 0.00 0.00 1010.5
20260830103502 71 190 1.0 3.0 0.00 0.00 0.00 1010.5
20260830103003 71 209 1.0 3.0 0.00 0.00 0.00 1010.9
20260830102502 71 189 1.0 3.0 0.00 0.00 0.00 1010.2
20260830102002 71 187 2.0 3.0 0.00 0.00 0.00 1010.5
20260830101502 72 179 2.0 3.0 0.00 0.00 0.00 1010.2
20260830101024 72 199 2.0 3.0 0.00 0.00 0.00 1010.5
20260830100524 72 184 1.0 3.0 0.00 0.00 0.00 1010.5
20260830100002 72 196 2.0 3.0 0.00 0.00 0.00 1010.5
20260830095525 72 156 1.0 2.0 0.00 0.00 0.00 1010.5
20260830095002 72 150 1.0 2.0 0.00 0.00 0.00 1010.5
20260830094502 72 127 1.0 1.0 0.00 0.00 0.00 1010.2
20260830094003 72 129 0.0 2.0 0.00 0.00 0.00 1009.9
20260830093502 72 114 1.0 2.0 0.00 0.00 0.00 1009.9
20260830093002 72 154 1.0 2.0 0.00 0.00 0.00 1010.2
20260830092502 72 135 1.0 2.0 0.00 0.00 0.00 1009.5
20260830092003 72 165 1.0 2.0 0.00 0.00 0.00 1009.9
20260830091502 72 247 1.0 2.0 0.00 0.00 0.00 1009.9
20260830091002 72 247 1.0 2.0 0.00 0.00 0.00 1009.2
20260830090523 72 261 1.0 2.0 0.00 0.00 0.00 1009.2
20260830090004 72 238 2.0 2.0 0.00 0.00 0.00 1009.9
20260830085502 72 203 1.0 2.0 0.00 0.00 0.00 1009.5
20260830085024 72 202 1.0 2.0 0.00 0.00 0.00 1009.5
20260830084502 72 212 0.0 3.0 0.00 0.00 0.00 1009.5
20260830084002 72 179 1.0 3.0 0.00 0.00 0.00 1009.9
20260830083503 72 179 1.0 3.0 0.00 0.00 0.00 1009.9
20260830083003 72 202 2.0 4.0 0.00 0.00 0.00 1009.9
20260830082502 73 188 2.0 4.0 0.00 0.00 0.00 1010.2
20260830082002 73 192 2.0 5.0 0.00 0.00 0.00 1010.9
20260830081503 73 165 3.0 5.0 0.00 0.00 0.00 1010.5
20260830081002 73 186 2.0 4.0 0.00 0.00 0.00 1010.5
20260830080502 73 192 2.0 4.0 0.00 0.00 0.00 1010.5
20260830080003 73 171 2.0 3.0 0.00 0.00 0.00 1010.5
20260830075503 74 112 1.0 2.0 0.00 0.00 0.00 1010.2
20260830075002 74 96 2.0 2.0 0.00 0.00 0.00 1010.5
20260830074502 74 135 1.0 2.0 0.00 0.00 0.00 1010.5
20260830074024 74 156 1.0 2.0 0.00 0.00 0.00 1010.5
20260830073503 74 158 1.0 2.0 0.00 0.00 0.00 1010.2
20260830073002 74 180 0.0 2.0 0.00 0.00 0.00 1009.9
20260830072503 74 185 1.0 2.0 0.00 0.00 0.00 1009.9
20260830072002 74 202 1.0 2.0 0.00 0.00 0.00 1010.5
20260830071502 74 200 1.0 2.0 0.00 0.00 0.00 1010.2
20260830071024 75 117 1.0 2.0 0.00 0.00 0.00 1010.5
20260830070503 74 87 1.0 2.0 0.00 0.00 0.00 1010.2
20260830070024 74 247 1.0 3.0 0.00 0.00 0.00 1009.2
20260830065502 74 247 1.0 3.0 0.00 0.00 0.00 1009.2
20260830065003 74 264 2.0 4.0 0.00 0.00 0.00 1009.2
20260830064523 74 255 3.0 4.0 0.00 0.00 0.00 1009.5
20260830064002 74 260 2.0 5.0 0.00 0.00 0.00 1009.5
20260830063502 74 249 4.0 5.0 0.00 0.00 0.00 1009.5
20260830063002 75 276 2.0 4.0 0.00 0.00 0.00 1009.2
20260830062502 75 274 2.0 5.0 0.00 0.00 0.00 1008.8
20260830062002 74 269 3.0 5.0 0.00 0.00 0.00 1008.8
20260830061502 74 256 3.0 6.0 0.00 0.00 0.00 1009.2
20260830061002 75 248 4.0 8.0 0.00 0.00 0.00 1009.9
20260830060502 75 263 4.0 8.0 0.00 0.00 0.00 1009.9
20260830060024 75 264 4.0 6.0 0.00 0.00 0.00 1009.9
20260830055502 75 234 3.0 5.0 0.00 0.00 0.00 1009.9
20260830055002 75 230 3.0 5.0 0.00 0.00 0.00 1009.9
20260830054502 75 245 3.0 7.0 0.00 0.00 0.00 1009.2
20260830054003 75 254 3.0 7.0 0.00 0.00 0.00 1009.2
20260830053502 75 251 4.0 7.0 0.00 0.00 0.00 1009.2
20260830053025 75 243 4.0 6.0 0.00 0.00 0.00 1009.2
20260830052502 76 232 3.0 4.0 0.00 0.00 0.00 1009.5
20260830052002 76 261 2.0 4.0 0.00 0.00 0.00 1009.9
20260830051504 76 264 2.0 3.0 0.00 0.00 0.00 1010.2
20260830051003 76 240 2.0 3.0 0.00 0.00 0.00 1010.2
20260830050502 76 226 2.0 3.0 0.00 0.00 0.00 1010.2
20260830050003 76 225 2.0 4.0 0.00 0.00 0.00 1010.2
20260830045503 76 202 2.0 4.0 0.00 0.00 0.00 1009.5
20260830045002 76 260 2.0 5.0 0.00 0.00 0.00 1009.9
20260830044503 76 237 3.0 5.0 0.00 0.00 0.00 1009.9
20260830044003 76 252 2.0 4.0 0.00 0.00 0.00 1010.2
20260830043502 76 235 3.0 5.0 0.00 0.00 0.00 1010.2
20260830043003 76 276 3.0 5.0 0.00 0.00 0.00 1009.5
20260830042503 76 259 3.0 7.0 0.00 0.00 0.00 1009.5
20260830042002 76 259 4.0 7.0 0.00 0.00 0.00 1009.5
20260830041504 77 265 4.0 7.0 0.00 0.00 0.00 1009.2
20260830041002 77 270 1.0 5.0 0.00 0.00 0.00 1009.2
20260830040502 77 255 3.0 7.0 0.00 0.00 0.00 1009.2
20260830040023 77 289 3.0 7.0 0.00 0.00 0.00 1008.5
20260830035502 77 291 4.0 7.0 0.00 0.00 0.00 1008.8
20260830035003 77 293 3.0 7.0 0.00 0.00 0.00 1008.5
20260830034503 77 292 4.0 7.0 0.00 0.00 0.00 1008.5
20260830034002 77 279 4.0 7.0 0.00 0.00 0.00 1008.8
20260830033503 77 285 4.0 9.0 0.00 0.00 0.00 1008.2
20260830033003 77 283 3.0 9.0 0.00 0.00 0.00 1008.5
20260830032502 77 292 4.0 7.0 0.00 0.00 0.00 1008.8
20260830032002 78 281 4.0 9.0 0.00 0.00 0.00 1008.5
20260830031525 78 302 4.0 9.0 0.00 0.00 0.00 1008.5
20260830031003 78 279 4.0 8.0 0.00 0.00 0.00 1008.5
20260830030502 78 276 5.0 8.0 0.00 0.00 0.00 1008.5
20260830030002 79 285 2.0 9.0 0.00 0.00 0.00 1008.2